www.pogodaiklimat.ru

Погода и климат >> Архив погоды >> Канада >> Baker Lake Airport


ПОГОДА в Baker Lake Airport

  • Прогноз погоды в Baker Lake Airport
  • Монитор погоды в Baker Lake Airport
  • Климат города

АРХИВ ПОГОДЫ в Baker Lake Airport

Время (UTC), дата Ветер
(напр.,м/с)
 
Видим.   Явления Облачность Т
(С)
Тd
(С)
f
(%)
Тe
(С)
Тes
(С)
Комфортность P
(гПа)
Po
(гПа)
Тmin
(С)
Tmax
(С)
R
(мм)
R24
(мм)
S
(см)
06 13.09 С 4 24 км 4/0 2000 м
[Ac cuf Ci sp]
+1.3 -1.4 82 -4 -4 1014.4 1012.0 0.0 +9.0 17
09 13.09 С 3 24 км 3/0
[]
-1.2 -3.2 86 -6 -6 1015.4 1013.0
12 13.09 С 3 30 км 6/0
[Ac trans Ci fib]
-1.6 -3.3 88 -6 -6 1016.3 1013.9 -2.1 +9.0
15 13.09 В 3 30 км 6/6 300 м
[]
+3.9 +0.7 80 0 +1 1016.7 1014.3
18 13.09 ЮВ 2 30 км 6/1 300 м
[Sc Cs]
+5.5 -0.5 65 +3 +7 1016.8 1014.4 -2.1 +5.9
21 13.09 Ю 2 30 км 6/6 1500 м
[]
+6.5 -0.5 61 +5 +6 1016.8 1014.4
00 14.09 Ю 2 30 км 8/0
[Cs]
+5.1 -2.2 59 +3 +3 1017.0 1014.6 -2.1 +7.1
03 14.09 З 1 30 км 8/0
[]
-0.1 -5.4 67 -2 -2 1017.4 1015.0
06 14.09 С 1 24 км 6/0
[Ac und Cc]
+1.4 -4.3 66 +1 +1 1017.5 1015.1 -2.1 +7.1 7
09 14.09 С 1 24 км 5/0
[]
+0.3 -1.7 86 -0 -0 1018.0 1015.6
12 14.09 СЗ 1 30 км 8/0
[Ac und Ci fib]
-1.9 -3.2 91 -4 -4 1018.4 1016.0 -2.2 +7.1
15 14.09 С 1 30 км 6/0
[]
+6.0 +0.7 69 +5 +7 1018.6 1016.2
18 14.09 СЗ 4 30 км 8/6 1000 м
[Sc Cs]
+10.1 +0.2 50 +8 +9 1018.1 1015.7 -2.4 +10.3
21 14.09 СЗ 6 30 км 9/9 600 м
[]
+8.8 +1.6 61 +5 +6 1018.4 1016.0
00 15.09 СЗ 5 30 км 1/1 600 м
[Sc Cs]
+5.9 -0.6 63 +2 +2 1018.8 1016.4 -2.4 +10.3
03 15.09 СЗ 6 24 км ясно +0.2 -2.2 84 -6 -6 1018.8 1016.4
06 15.09 СЗ 4 24 км ясно -0.8 -2.9 86 -6 -6 1018.8 1016.4 -2.4 +10.3 22
09 15.09 З 5 24 км 3/0
[]
0.0 -1.0 93 -6 -6 1018.2 1015.8
12 15.09 ЮЗ 1 30 км 9/1 600 м
[Sc Ac As Ci fib]
-1.5 -2.1 96 -4 -4 1017.2 1014.8 -2.0 +10.3
15 15.09 Ю 2 40 км 10/10 1500 м
[]
+4.9 +4.0 94 +2 +2 1015.1 1012.7
18 15.09 З 7 24 км слабый дождь 10/10 300 м
[Sc]
+7.9 +6.2 89 +3 +3 1013.4 1011.0 -2.0 +8.4 1
21 15.09 З 7 16 км 10/10 300 м
[]
+8.9 +8.1 95 +5 +5 1012.1 1009.7
00 16.09 З 5 40 км слабый дождь 10/10 600 м
[Sc]
+9.7 +8.5 92 +6 +6 1012.0 1009.6 -2.0 +9.9 3
03 16.09 З 4 24 км 10/10 300 м
[]
+9.2 +8.6 96 +6 +6 1012.3 1010.0
06 16.09 СЗ 6 24 км {дождь, морось} 9/9 300 м
[Sc]
+8.0 +6.9 93 +4 +4 1014.3 1012.0 -2.0 +9.9 0.6 19
09 16.09 З 5 24 км 5/5 100 м
[]
+6.4 +5.8 96 +2 +2 1016.2 1013.9
12 16.09 СЗ 6 30 км 10/10 100 м
[Sc]
+6.5 +5.8 95 +2 +2 1018.2 1015.8 +5.7 +9.9
15 16.09 СЗ 4 40 км 10/10 100 м
[]
+8.2 +6.7 90 +5 +5 1020.0 1017.6
18 16.09 СЗ 2 40 км 9/6 300 м
[Sc Ci sp]
+10.3 +5.8 74 +9 +11 1020.5 1018.1 +5.7 +11.0
21 16.09 ЮВ 4 40 км ясно +11.8 +5.1 63 +10 +12 1021.0 1018.6
00 17.09 ЮВ 3 40 км ясно +8.5 +5.8 83 +6 +6 1020.3 1017.9 +5.7 +12.0
03 17.09 Ю 2 24 км 1/0
[]
+5.0 +3.9 93 +2 +2 1020.2 1017.8
06 17.09 Ю 2 24 км 1/0
[Ac trans]
+3.5 +2.9 96 +1 +1 1019.9 1017.5 +3.4 +12.0 81
09 17.09 Ю 3 24 км ясно +3.2 +2.8 97 -1 -1 1019.4 1017.0
12 17.09 Ю 3 30 км ясно +3.4 +3.0 97 -1 -1 1018.2 1015.8 +2.3 +12.0
15 17.09 Ю 3 40 км ясно +7.7 +5.1 84 +5 +6 1017.2 1014.8
18 17.09 Ю 6 40 км ясно +14.8 +5.2 53 +13 +15 1016.2 1013.9 +2.3 +14.8
21 17.09 Ю 7 40 км ясно +16.0 +3.8 44 +15 +15 1015.4 1013.1
00 18.09 Ю 3 40 км 4/0
[Ac As Ci sp]
+10.3 +7.2 81 +8 +8 1014.7 1012.4 +2.3 +16.3
03 18.09 Ю 2 24 км ясно +6.0 +5.0 93 +3 +3 1015.1 1012.8
06 18.09 Ю 4 24 км ясно +5.4 +4.7 95 +1 +1 1014.9 1012.6 +2.3 +16.3 201
09 18.09 Ю 5 24 км ясно +5.3 +5.1 99 +1 +1 1014.4 1012.1
12 18.09 Ю 5 24 км 10/10 100 м
[Sc]
+4.4 +3.7 95 -1 -1 1014.3 1012.0 +16.3
15 18.09 Ю 5 16 км 10/10 50 м
[]
+4.1 +3.5 96 -1 -1 1014.2 1011.8
18 18.09 ЮВ 5 40 км {морось} 9/9 300 м
[Sc]
+8.8 +5.7 81 +6 +6 1013.8 1011.5 0.2
21 18.09 Ю 5 40 км 9/9 300 м
[]
+10.8 +5.5 70 +8 +8 1013.3 1011.0
00 19.09 Ю 3 40 км 9/1 600 м
[Sc Ci sp]
+6.6 +4.5 86 +3 +3 1013.6 1011.2 +11.0
03 19.09 Ю 1 30 км 4/4 600 м
[]
+4.0 +3.3 95 +2 +2 1013.8 1011.4
06 19.09 ЮЗ 2 24 км 8/1 600 м
[Sc Ac As]
+3.5 +2.9 96 0 0 1014.6 1012.2 12
09 19.09 ЮЗ 3 30 км 8/8 300 м
[]
+4.6 +3.2 91 +1 +1 1015.0 1012.7
12 19.09 З 1 30 км 6/4 300 м
[Sc Ac trans]
+1.5 +1.1 97 -1 -1 1015.8 1013.4 +1.3
15 19.09 ЮЗ 4 3200 м 6/6 600 м
[]
+4.8 +3.9 94 +1 +1 1016.7 1014.3
18 19.09 В 3 30 км 8/8 300 м
[St Ac As Cc]
+8.7 +4.5 75 +6 +7 1017.5 1015.1 +1.1 +8.7
21 19.09 В 4 30 км 8/8 600 м
[]
+8.9 +4.2 72 +6 +6 1018.3 1015.9
00 20.09 ЮВ 4 30 км 8/8 1000 м
[Sc Ac lent Cc]
+7.6 +4.5 81 +4 +4 1018.9 1016.5 +1.1 +9.6
03 20.09 С 1 24 км 5/0 2000 м
[]
+4.4 +3.0 91 +3 +3 1020.3 1017.9

 

Местоположение метеостанции Baker Lake Airport (Канада): широта 64.30 долгота -96.06 высота над уровнем моря 18 м.

В архиве по умолчанию представлена погода в Baker Lake Airport за последнюю неделю. Архивные данные за месяц целиком и за предыдущие месяцы, начиная с января 2011 года, Вы можете получить, выбрав интересующий диапазон дат из раскрывающегося списка и нажав кнопку "Ввод!".

Внимание! Время в таблицах - всемирное. Для получения местного времени необходимо прибавить поправку, которая в Baker Lake Airport равна -6 ч.

Смотрите также архив погоды в соседних городах и на ближайших метеорологических станциях:

Погода в Baker Lake Climate (Канада) (4 км)
Погода в Back River MAPS (Канада) (199 км)
Погода в Rankin Inlet (Канада) (256 км)
Погода в Dubawnt Lake (Канада) (302 км)
Погода в Robertson Lake (Канада) (314 км)
Погода в Wager Bay (Канада) (357 км)
Погода в Arviat Climate (Канада) (370 км)
Погода в Arviat (Канада) (370 км)
Погода в Arviat Airport (Канада) (371 км)
Погода в Hanbury River ARS (Канада) (451 км)

Пояснения к столбцам:

Ветер - указаны скорость ветра в м/с - средняя за 10 мин, порывы в срок и между сроками (в фигурных скобках) и направление, откуда дует ветер: С - северный, СВ - северо-восточный, В - восточный, ЮВ - юго-восточный, Ю - южный, ЮЗ - юго-западный, З - западный, СЗ - северо-западный.
Видимость - горизонтальная дальность видимости в метрах или километрах. При видимости от 1 до 10 км при отсутствии осадков обычно наблюдается дымка, при ухудшении видимости до 1 км и менее - туман. В сухую погоду видимость может ухудшаться дымом, пылью или мглою.
Явления - указаны атмосферные явления, наблюдавшиеся в срок или в последний час перед сроком; фигурными скобками обозначены явления, наблюдавшиеся между сроками (за 1-3 часа до срока); квадратными скобками обозначены град или гололедные отложения с указанием их диаметра в мм.
Облачность - указаны через наклонную черту общая и нижняя облачность в баллах и высота нижней границы облаков в метрах; квадратными скобками обозначены формы облаков: Ci - перистые, Cs - перисто-слоистые, Cc - перисто-кучевые, Ac - высококучевые, As - высокослоистые, Sc - слоисто-кучевые, Ns - слоисто-дождевые, Cu - кучевые, Cb - кучево-дождевые. Подробнее классификацию облаков см. в Атласе облаков (PDF).
T - Температура воздуха - температура, измеренная на высоте 2 м над землей.
Td - Температура точки росы - температура, при понижении до которой содержащийся в воздухе водяной пар достигнет насыщения.
f - Относительная влажность воздуха - влажноcть воздуха, измеренная на высоте 2 м над землей.
Te - Эффективная температура - температура, которую ощущает одетый по сезону человек в тени. Характеристика душности погоды. При расчете учитывается влияние влажности воздуха и скорости ветра на теплоощущения человека.
Tes - Эффективная температура на солнце - температура, которую ощущает человек, с поправкой на солнечный нагрев. Характеристика знойности погоды. Зависит от высоты солнца над горизонтом, облачности и скорости ветра. Ночью, в пасмурную погоду, а также при ветре 12 м/с и более поправка равна нулю.
P - Атмосферное давление - приведенное к уровню моря атмосферное давление.
Po - Атмосферное давление - измеренное на уровне метеостанции атмосферное давление.
Tmin - Минимальная температура - минимум температуры воздуха на высоте 2 м над землей.
Tmax - Максимальная температура - максимум температуры воздуха на высоте 2 м над землей.
R - Количество осадков - Количество выпавших осадков за период времени, мм. При наведении курсора мыши на число - период времени, за который выпало указанное количество осадков.
R24 - Количество осадков - Количество выпавших осадков за 24 часа, мм.
S - Снежный покров - Высота снежного покрова, см. При наведении курсора мыши на число - состояние снежного покрова и степень покрытия местности в баллах.